Location: Waco, TX
(31.5481°N, 97.1672°W)
Time: 21:19:59
(UTC-05:00)

ISS - Visible Passes

Search period start: 24 June 2019 00:00
Search period end: 04 July 2019 00:00
Orbit: 407 x 418 km, 51.6° (Epoch: 25 June)

Date Brightness Start Highest point End Pass type
(mag) Time Alt. Az. Time Alt. Az. Time Alt. Az.
24 Jun -1.2 05:52:51 10° SSE 05:54:55 16° SE 05:57:00 10° E visible
26 Jun -3.3 05:49:04 10° SSW 05:52:18 55° SE 05:55:32 10° NE visible
27 Jun -2.1 05:01:21 18° S 05:02:50 25° SE 05:05:38 10° ENE visible
28 Jun -1.1 04:13:55 12° ESE 04:13:55 12° ESE 04:15:00 10° E visible
28 Jun -3.0 05:46:45 10° WSW 05:49:48 39° NW 05:52:56 10° NNE visible
29 Jun -3.9 04:59:14 42° SW 05:00:13 84° NW 05:03:31 10° NE visible
30 Jun -2.3 04:11:38 33° E 04:11:38 33° E 04:13:51 10° ENE visible
30 Jun -1.4 05:45:27 10° WNW 05:47:30 15° NW 05:49:33 10° N visible
01 Jul -2.2 04:56:47 22° WNW 04:57:45 26° NW 05:00:35 10° NNE visible
02 Jul -2.3 04:09:03 35° N 04:09:03 35° N 04:11:18 10° NE visible
03 Jul -0.6 03:21:15 14° NE 03:21:15 14° NE 03:21:46 10° NE visible
03 Jul -1.1 04:54:28 10° NW 04:55:28 11° NNW 04:56:28 10° NNW visible
